Voltar ao catálogo

STARLINK-37515

AtivoComunicaçõesVLEO
NORAD 69169·PAYLOAD·🇺🇸 United States

Lançado May 21, 2026 de Cape Canaveral Space Force Station

Loading…

Próximas Passagens (próximas 24 horas)

TLE

AtualizadoSource: CelesTrak SupGP

Época: Sep 15, 2026, 04:29 UTC

1 69169C 26111X   26258.18729167 -.00026595  00000+0 -78590-3 0  2584
2 69169  53.1565  90.4174 0001180  92.3248 318.8527 15.34397977    11

Acompanhe STARLINK-37515 em tempo real com AllMySat

Download on the App Store